Home   Weather   Rawalpindi   Past weeks

Flag for Pakistan Past Weather in Rawalpindi, Pakistan — Yesterday and Last 2 Weeks

Now
46 °F

Fog.


Feels Like: 46 °F
Forecast: 49 / 71 °F
Wind: No wind

Location: Islamabad Airport

Current Time: Dec 9, 2016 at 6:58:13 am

Latest Report: Dec 9, 2016 at 6:30 am


Visibility: 1 mi

Pressure: 30.01 "Hg (28.24 "Hg at 501m altitude)

Humidity: 87%

Dew Point: 43 °F

Location of RawalpindiLocation

Past Weather in Rawalpindi — Graph

°F

Rawalpindi Temperature Yesterday

Maximum temperature yesterday: 75 °F (at 3:00 pm)
Minimum temperature yesterday: 46 °F (at 7:30 am)
Average temperature yesterday: 61 °F

High & Low Weather Summary for the Past Weeks

 TemperatureHumidityPressure
High79 °F (Nov 26, 1:00 pm)100% (Nov 26, 7:00 pm)30.21 "Hg (Nov 26, 7:00 pm)
Low46 °F (Nov 28, 7:00 am)19% (Nov 28, 4:00 pm)29.92 "Hg (Nov 28, 3:00 pm)
Average61 °F56%30.07 "Hg
* Reported Nov 24 5:00 am — Dec 9 5:00 am, Rawalpindi, Weather by CustomWeather, © 2016

Note: Actual official high and low records may vary slightly from our data, if they occured in-between our weather recording intervals... More about our weather records

Advertising

Rawalpindi Weather History for the Previous 24 Hours

Scroll right to see more
 ConditionsComfort  
Time TempWeatherWind HumidityBarometerVisibility
5:00 am
Fri, Dec 9
48 °FFog.No wind82%29.98 "Hg1 mi
4:30 am48 °FFog.No wind82%29.98 "Hg1 mi
4:00 am48 °FFog.No wind82%29.98 "Hg1 mi
3:30 am52 °FHaze.No wind77%30.01 "Hg1 mi
3:00 am52 °FHaze.No wind77%30.01 "Hg1 mi
2:00 am52 °FHaze.No wind77%30.04 "Hg1 mi
1:30 am52 °FHaze.No wind77%30.04 "Hg1 mi
1:00 am52 °FHaze.No wind77%30.04 "Hg1 mi
12:30 am54 °FHaze.No wind77%30.04 "Hg1 mi
12:00 am54 °FHaze.No wind77%30.04 "Hg1 mi
11:30 pm
Thu, Dec 8
55 °FHaze.No wind72%30.07 "Hg1 mi
11:00 pm55 °FHaze.No wind72%30.07 "Hg1 mi
9:00 pm57 °FHaze.No wind72%30.04 "Hg1 mi
8:00 pm59 °FHaze.5 mph68%30.04 "Hg1 mi
7:00 pm63 °FPassing clouds.5 mph64%30.01 "Hg1 mi
6:00 pm66 °FPassing clouds.5 mph52%30.01 "Hg1 mi
5:30 pm70 °FPassing clouds.No wind43%30.01 "Hg1 mi
5:00 pm70 °FPassing clouds.No wind43%30.01 "Hg1 mi
4:30 pm73 °FScattered clouds.No wind38%30.01 "Hg1 mi
3:30 pm75 °FScattered clouds.No wind36%30.01 "Hg1 mi
3:00 pm75 °FHaze.No wind36%30.01 "Hg1 mi
2:30 pm72 °FHaze.No wind38%30.04 "Hg1 mi
2:00 pm72 °FHaze.No wind38%30.04 "Hg1 mi
1:30 pm72 °FHaze.No wind38%30.07 "Hg1 mi
11:30 am63 °FHaze.No wind49%30.09 "Hg1 mi
11:00 am63 °FHaze.No wind49%30.09 "Hg1 mi
10:30 am55 °FHaze.No wind67%30.12 "Hg1 mi
10:00 am55 °FHaze.No wind67%30.12 "Hg1 mi
9:30 am52 °FHaze.No wind72%30.12 "Hg1 mi
9:00 am52 °FHaze.No wind72%30.12 "Hg1 mi
8:30 am46 °FFog.No wind87%30.09 "Hg1 mi
7:30 am46 °FFog.No wind87%30.07 "Hg1 mi
6:00 am48 °FHaze.No wind76%30.07 "Hg1 mi
Weather by CustomWeather, © 2016

See weather overviewHow to use our weather pages